Location: Anglesey
(53.1800°N, 4.2200°W)
Time: 03:55:33
(UTC+01:00)

Tiangong 2 - Pass Details

Date: 14 October 2017
Orbit: 388 x 391 km, 42.8° (Epoch: 20 October)

Event Time Altitude Azimuth Distance (km) Brightness Sun altitude
Exits shadow 05:21:31 11° 155° (SSE) 1,355 3.9 -21.6°
Drops below altitude 10° 05:22:01 10° 146° (SSE) 1,421 4.1 -21.5°
Sets 05:25:08 0° 113° (ESE) 2,278 5.8 -21.1°
